Starlink 1800

operational
NORAD ID: 46700 Int'l Des: 2020-073 Owner: SPXS Country: US Constellation: starlink
LEOCIRCULARSTARLINK_TYPE

About Starlink 1800

Description loading...

Live Position

Loading 3D Globe...

Upcoming Passes

Altitude History

Altitude vs Time

uPlot chart will show altitude changes over time

Two-Line Element Set

1 46700U 20073AG 25305.64935801 .00099589 00000-0 27640-2 0 9991
2 46700 53.0531 107.5964 0001524 256.5175 103.5657 15.36116339277675
Epoch: Nov 1, 2025 • Age: 13 hours

Current Status

Altitude 461.5 km
Velocity 7.64 km/s
Sub-Earth Point -17.64°S, 177.27°W
Launch Date Oct 18, 2020
Age 5 years
Type internet

Technical Details

Classification Payload
Mass 260.00 kg
Dry Mass 248.00 kg
Total Mass 260.00 kg
Length 0.20 m
Diameter 2.80 m
Span 9.00 m
Shape Box + pan
Manufacturer SPXS
Bus Type Starlink
Phase Status In Orbit
Owner/State SPXS/US

Large Constellations

Loading constellations...